| time (UTC) | temp F | wind direction | speed knots | gust knots | rain 1hr in | rain 24hr in | rain mn in | humidity % | barometer mb |
| 20260504050534 | 61 | 262 | 0.9 | 3.5 | 0.00 | 0.00 | 0.00 | 76 | 1015.0 |
| 20260504045534 | 62 | 240 | 0.9 | 2.6 | 0.00 | 0.00 | 0.00 | 76 | 1015.1 |
| 20260504045034 | 62 | 244 | 0.9 | 2.6 | 0.00 | 0.00 | 0.00 | 76 | 1015.1 |
| 20260504044558 | 61 | 261 | 0.9 | 2.6 | 0.00 | 0.00 | 0.00 | 75 | 1014.9 |
| 20260504044034 | 61 | 244 | 0.9 | 1.7 | 0.00 | 0.00 | 0.00 | 75 | 1014.8 |
| 20260504043535 | 61 | 0 | 0.0 | 2.6 | 0.00 | 0.00 | 0.00 | 75 | 1014.7 |
| 20260504043045 | 61 | 0 | 0.9 | 2.6 | 0.00 | 0.00 | 0.00 | 75 | 1014.5 |
| 20260504042534 | 61 | 242 | 0.0 | 2.6 | 0.00 | 0.00 | 0.00 | 75 | 1014.6 |
| 20260504042033 | 61 | 255 | 0.9 | 2.6 | 0.00 | 0.00 | 0.00 | 75 | 1014.6 |
| 20260504041549 | 61 | 309 | 0.9 | 1.7 | 0.00 | 0.00 | 0.00 | 75 | 1014.6 |
| 20260504041035 | 61 | 331 | 0.9 | 3.5 | 0.00 | 0.00 | 0.00 | 75 | 1014.4 |
| 20260504040535 | 61 | 284 | 0.9 | 3.5 | 0.00 | 0.00 | 0.00 | 75 | 1014.6 |
| 20260504035534 | 61 | 274 | 0.9 | 2.6 | 0.00 | 0.00 | 0.00 | 74 | 1014.2 |
| 20260504035036 | 61 | 315 | 0.9 | 2.6 | 0.00 | 0.00 | 0.00 | 74 | 1014.4 |
| 20260504034557 | 61 | 277 | 0.9 | 3.5 | 0.00 | 0.00 | 0.00 | 74 | 1014.6 |
| 20260504034034 | 61 | 246 | 0.9 | 3.5 | 0.00 | 0.00 | 0.00 | 74 | 1014.6 |
| 20260504033535 | 61 | 267 | 0.9 | 3.5 | 0.00 | 0.00 | 0.00 | 73 | 1014.5 |
| 20260504033124 | 61 | 296 | 1.7 | 3.5 | 0.00 | 0.00 | 0.00 | 73 | 1014.5 |
| 20260504032535 | 61 | 252 | 1.7 | 3.5 | 0.00 | 0.00 | 0.00 | 73 | 1014.5 |
| 20260504032035 | 61 | 256 | 0.9 | 3.5 | 0.00 | 0.00 | 0.00 | 73 | 1014.4 |
| 20260504031548 | 61 | 292 | 1.7 | 4.3 | 0.00 | 0.00 | 0.00 | 73 | 1014.4 |
| 20260504031035 | 61 | 278 | 1.7 | 4.3 | 0.00 | 0.00 | 0.00 | 73 | 1014.3 |
| 20260504030533 | 61 | 227 | 1.7 | 4.3 | 0.00 | 0.00 | 0.00 | 73 | 1014.2 |
| 20260504030051 | 61 | 269 | 0.9 | 3.5 | 0.00 | 0.00 | 0.00 | 73 | 1014.2 |
| 20260504025535 | 61 | 252 | 0.9 | 4.3 | 0.00 | 0.00 | 0.00 | 72 | 1014.2 |
| 20260504025035 | 62 | 232 | 0.9 | 4.3 | 0.00 | 0.00 | 0.00 | 72 | 1014.0 |
| 20260504024545 | 62 | 288 | 1.7 | 4.3 | 0.00 | 0.00 | 0.00 | 72 | 1014.0 |
| 20260504024034 | 62 | 273 | 1.7 | 3.5 | 0.00 | 0.00 | 0.00 | 72 | 1014.0 |
| 20260504023535 | 62 | 270 | 0.9 | 4.3 | 0.00 | 0.00 | 0.00 | 72 | 1014.0 |
| 20260504023059 | 62 | 235 | 0.9 | 4.3 | 0.00 | 0.00 | 0.00 | 72 | 1014.0 |
| 20260504022534 | 62 | 270 | 0.9 | 5.2 | 0.00 | 0.00 | 0.00 | 72 | 1014.1 |
| 20260504022034 | 62 | 262 | 1.7 | 5.2 | 0.00 | 0.00 | 0.00 | 71 | 1014.1 |
| 20260504021546 | 62 | 329 | 1.7 | 6.1 | 0.00 | 0.00 | 0.00 | 71 | 1014.1 |
| 20260504021034 | 62 | 276 | 2.6 | 6.1 | 0.00 | 0.00 | 0.00 | 71 | 1014.3 |
| 20260504020534 | 62 | 252 | 1.7 | 6.1 | 0.00 | 0.00 | 0.00 | 71 | 1014.0 |
| 20260504020057 | 62 | 246 | 2.6 | 7.0 | 0.00 | 0.00 | 0.00 | 71 | 1014.0 |
| 20260504015534 | 62 | 226 | 3.5 | 7.0 | 0.00 | 0.00 | 0.00 | 71 | 1014.0 |
| 20260504015035 | 62 | 257 | 2.6 | 6.1 | 0.00 | 0.00 | 0.00 | 71 | 1014.0 |
| 20260504014549 | 62 | 229 | 2.6 | 6.1 | 0.00 | 0.00 | 0.00 | 71 | 1013.9 |
| 20260504014035 | 62 | 269 | 2.6 | 6.1 | 0.00 | 0.00 | 0.00 | 71 | 1013.8 |
| 20260504013535 | 62 | 270 | 2.6 | 7.0 | 0.00 | 0.00 | 0.00 | 70 | 1013.9 |
| 20260504013100 | 62 | 233 | 3.5 | 7.8 | 0.00 | 0.00 | 0.00 | 70 | 1013.9 |
| 20260504012537 | 62 | 267 | 3.5 | 8.7 | 0.00 | 0.00 | 0.00 | 70 | 1013.8 |
| 20260504012033 | 62 | 284 | 4.3 | 8.7 | 0.00 | 0.00 | 0.00 | 70 | 1013.7 |
| 20260504011546 | 62 | 271 | 3.5 | 7.8 | 0.00 | 0.00 | 0.00 | 70 | 1013.6 |
| 20260504011032 | 62 | 288 | 2.6 | 7.8 | 0.00 | 0.00 | 0.00 | 70 | 1013.6 |
| 20260504010532 | 62 | 279 | 4.3 | 7.8 | 0.00 | 0.00 | 0.00 | 69 | 1013.6 |
| 20260504010053 | 62 | 299 | 3.5 | 7.8 | 0.00 | 0.00 | 0.00 | 69 | 1013.5 |
| 20260504005535 | 62 | 256 | 2.6 | 8.7 | 0.00 | 0.00 | 0.00 | 70 | 1013.5 |
| 20260504005032 | 62 | 317 | 4.3 | 8.7 | 0.00 | 0.00 | 0.00 | 70 | 1013.4 |
| 20260504004603 | 63 | 277 | 4.3 | 7.8 | 0.00 | 0.00 | 0.00 | 70 | 1013.4 |
| 20260504004033 | 63 | 257 | 3.5 | 9.6 | 0.00 | 0.00 | 0.00 | 69 | 1013.2 |
| 20260504003532 | 63 | 290 | 4.3 | 9.6 | 0.00 | 0.00 | 0.00 | 68 | 1013.5 |
| 20260504003045 | 63 | 239 | 4.3 | 9.6 | 0.00 | 0.00 | 0.00 | 68 | 1013.2 |
| 20260504002532 | 63 | 272 | 4.3 | 8.7 | 0.00 | 0.00 | 0.00 | 68 | 1013.3 |
| 20260504002032 | 63 | 276 | 3.5 | 9.6 | 0.00 | 0.00 | 0.00 | 68 | 1013.3 |
| 20260504001546 | 63 | 267 | 3.5 | 9.6 | 0.00 | 0.00 | 0.00 | 68 | 1013.1 |
| 20260504001035 | 63 | 258 | 3.5 | 8.7 | 0.00 | 0.00 | 0.00 | 67 | 1013.1 |
| 20260504000533 | 64 | 293 | 4.3 | 7.8 | 0.00 | 0.00 | 0.00 | 67 | 1013.2 |
| 20260504000049 | 64 | 291 | 4.3 | 8.7 | 0.00 | 0.00 | 0.00 | 66 | 1013.1 |
| 20260503235532 | 64 | 273 | 3.5 | 8.7 | 0.00 | 0.00 | 0.00 | 65 | 1013.1 |
| 20260503235032 | 64 | 292 | 4.3 | 7.8 | 0.00 | 0.00 | 0.00 | 65 | 1013.1 |
| 20260503234547 | 65 | 326 | 2.6 | 7.0 | 0.00 | 0.00 | 0.00 | 65 | 1013.0 |
| 20260503234032 | 65 | 262 | 3.5 | 7.8 | 0.00 | 0.00 | 0.00 | 65 | 1012.8 |
| 20260503233536 | 65 | 298 | 2.6 | 7.8 | 0.00 | 0.00 | 0.00 | 66 | 1012.8 |
| 20260503233046 | 66 | 302 | 2.6 | 7.8 | 0.00 | 0.00 | 0.00 | 64 | 1012.8 |
| 20260503232533 | 66 | 295 | 2.6 | 7.8 | 0.00 | 0.00 | 0.00 | 64 | 1013.0 |
| 20260503232034 | 66 | 279 | 4.3 | 8.7 | 0.00 | 0.00 | 0.00 | 64 | 1012.9 |
| 20260503231550 | 67 | 244 | 4.3 | 8.7 | 0.00 | 0.00 | 0.00 | 62 | 1013.0 |
| 20260503231033 | 68 | 293 | 4.3 | 7.8 | 0.00 | 0.00 | 0.00 | 61 | 1013.0 |
| 20260503230536 | 68 | 13 | 3.5 | 7.8 | 0.00 | 0.00 | 0.00 | 60 | 1013.1 |
| 20260503230044 | 68 | 302 | 3.5 | 7.8 | 0.00 | 0.00 | 0.00 | 62 | 1013.3 |
| 20260503225535 | 68 | 279 | 3.5 | 9.6 | 0.00 | 0.00 | 0.00 | 61 | 1013.2 |
| 20260503225035 | 68 | 274 | 4.3 | 9.6 | 0.00 | 0.00 | 0.00 | 60 | 1013.3 |
| 20260503224547 | 69 | 252 | 3.5 | 9.6 | 0.00 | 0.00 | 0.00 | 60 | 1013.2 |
| 20260503224035 | 69 | 297 | 2.6 | 7.8 | 0.00 | 0.00 | 0.00 | 62 | 1013.3 |
| 20260503223531 | 69 | 254 | 4.3 | 8.7 | 0.00 | 0.00 | 0.00 | 60 | 1013.3 |
| 20260503223051 | 69 | 252 | 3.5 | 8.7 | 0.00 | 0.00 | 0.00 | 60 | 1013.3 |
| 20260503222533 | 69 | 294 | 3.5 | 8.7 | 0.00 | 0.00 | 0.00 | 61 | 1013.2 |
| 20260503222031 | 69 | 300 | 3.5 | 8.7 | 0.00 | 0.00 | 0.00 | 60 | 1013.4 |
| 20260503221545 | 69 | 232 | 3.5 | 7.8 | 0.00 | 0.00 | 0.00 | 62 | 1013.5 |
| 20260503221037 | 69 | 313 | 3.5 | 8.7 | 0.00 | 0.00 | 0.00 | 63 | 1013.4 |
| 20260503220533 | 69 | 271 | 3.5 | 8.7 | 0.00 | 0.00 | 0.00 | 60 | 1013.4 |
| 20260503220046 | 69 | 238 | 4.3 | 8.7 | 0.00 | 0.00 | 0.00 | 59 | 1013.5 |
| 20260503215532 | 69 | 258 | 2.6 | 8.7 | 0.00 | 0.00 | 0.00 | 59 | 1013.6 |
| 20260503215031 | 69 | 323 | 2.6 | 7.8 | 0.00 | 0.00 | 0.00 | 59 | 1013.7 |
| 20260503214543 | 69 | 260 | 2.6 | 7.8 | 0.00 | 0.00 | 0.00 | 58 | 1013.7 |
| 20260503214038 | 69 | 285 | 3.5 | 7.8 | 0.00 | 0.00 | 0.00 | 61 | 1013.8 |
| 20260503213535 | 69 | 263 | 3.5 | 7.8 | 0.00 | 0.00 | 0.00 | 58 | 1013.7 |
| 20260503213103 | 69 | 290 | 3.5 | 7.8 | 0.00 | 0.00 | 0.00 | 57 | 1013.7 |
| 20260503212535 | 69 | 294 | 0.9 | 7.0 | 0.00 | 0.00 | 0.00 | 60 | 1013.8 |
| 20260503212035 | 68 | 315 | 2.6 | 7.8 | 0.00 | 0.00 | 0.00 | 63 | 1013.8 |
| 20260503211548 | 68 | 252 | 2.6 | 9.6 | 0.00 | 0.00 | 0.00 | 61 | 1013.8 |
| 20260503211035 | 68 | 269 | 3.5 | 9.6 | 0.00 | 0.00 | 0.00 | 65 | 1013.8 |
| 20260503210538 | 67 | 286 | 3.5 | 7.8 | 0.00 | 0.00 | 0.00 | 68 | 1013.8 |
| 20260503210056 | 67 | 292 | 3.5 | 7.8 | 0.00 | 0.00 | 0.00 | 68 | 1013.8 |
| 20260503205532 | 67 | 303 | 3.5 | 8.7 | 0.00 | 0.00 | 0.00 | 69 | 1013.9 |
| 20260503205035 | 67 | 282 | 2.6 | 8.7 | 0.00 | 0.00 | 0.00 | 67 | 1013.8 |
| 20260503204551 | 67 | 257 | 3.5 | 9.6 | 0.00 | 0.00 | 0.00 | 68 | 1013.9 |
| 20260503204031 | 66 | 324 | 4.3 | 9.6 | 0.00 | 0.00 | 0.00 | 68 | 1013.9 |
| 20260503203531 | 66 | 360 | 4.3 | 9.6 | 0.00 | 0.00 | 0.00 | 69 | 1013.9 |
| 20260503203047 | 66 | 259 | 5.2 | 9.6 | 0.00 | 0.00 | 0.00 | 69 | 1014.0 |
| 20260503202532 | 65 | 277 | 3.5 | 8.7 | 0.00 | 0.00 | 0.00 | 71 | 1014.0 |
| 20260503202034 | 65 | 297 | 5.2 | 9.6 | 0.00 | 0.00 | 0.00 | 70 | 1014.0 |
| 20260503201551 | 65 | 296 | 4.3 | 10.4 | 0.00 | 0.00 | 0.00 | 69 | 1014.0 |
| 20260503201035 | 65 | 312 | 4.3 | 10.4 | 0.00 | 0.00 | 0.00 | 70 | 1014.1 |
| 20260503200533 | 65 | 289 | 3.5 | 9.6 | 0.00 | 0.00 | 0.00 | 71 | 1014.1 |
| 20260503200054 | 65 | 340 | 3.5 | 9.6 | 0.00 | 0.00 | 0.00 | 71 | 1014.2 |
| 20260503195530 | 65 | 279 | 4.3 | 9.6 | 0.00 | 0.00 | 0.00 | 70 | 1014.3 |
| 20260503195035 | 66 | 310 | 4.3 | 10.4 | 0.00 | 0.00 | 0.00 | 70 | 1014.2 |
| 20260503194546 | 66 | 317 | 4.3 | 10.4 | 0.00 | 0.00 | 0.00 | 71 | 1014.2 |
| 20260503194035 | 65 | 313 | 4.3 | 8.7 | 0.00 | 0.00 | 0.00 | 70 | 1014.2 |
| 20260503193532 | 65 | 317 | 3.5 | 8.7 | 0.00 | 0.00 | 0.00 | 70 | 1014.3 |
| 20260503193054 | 66 | 247 | 4.3 | 10.4 | 0.00 | 0.00 | 0.00 | 70 | 1014.3 |
| 20260503192535 | 66 | 304 | 4.3 | 10.4 | 0.00 | 0.00 | 0.00 | 71 | 1014.3 |
| 20260503192034 | 66 | 313 | 2.6 | 7.8 | 0.00 | 0.00 | 0.00 | 72 | 1014.3 |
| 20260503191552 | 65 | 213 | 4.3 | 10.4 | 0.00 | 0.00 | 0.00 | 72 | 1014.3 |
| 20260503191032 | 65 | 278 | 4.3 | 10.4 | 0.00 | 0.00 | 0.00 | 73 | 1014.3 |
| 20260503190536 | 65 | 295 | 4.3 | 8.7 | 0.00 | 0.00 | 0.00 | 73 | 1014.4 |
| 20260503190048 | 64 | 267 | 3.5 | 8.7 | 0.00 | 0.00 | 0.00 | 73 | 1014.5 |
| 20260503185531 | 64 | 209 | 5.2 | 9.6 | 0.00 | 0.00 | 0.00 | 73 | 1014.5 |
| 20260503185035 | 64 | 311 | 2.6 | 9.6 | 0.00 | 0.00 | 0.00 | 75 | 1014.4 |
| 20260503184556 | 64 | 253 | 5.2 | 9.6 | 0.00 | 0.00 | 0.00 | 74 | 1014.4 |
| 20260503184036 | 64 | 314 | 4.3 | 8.7 | 0.00 | 0.00 | 0.00 | 73 | 1014.5 |
| 20260503183533 | 64 | 299 | 2.6 | 9.6 | 0.00 | 0.00 | 0.00 | 74 | 1014.5 |
| 20260503183101 | 64 | 294 | 3.5 | 9.6 | 0.00 | 0.00 | 0.00 | 73 | 1014.4 |
| 20260503182531 | 64 | 274 | 4.3 | 9.6 | 0.00 | 0.00 | 0.00 | 73 | 1014.4 |
| 20260503182035 | 64 | 279 | 3.5 | 9.6 | 0.00 | 0.00 | 0.00 | 74 | 1014.5 |
| 20260503181550 | 64 | 303 | 2.6 | 8.7 | 0.00 | 0.00 | 0.00 | 75 | 1014.4 |
| 20260503181031 | 64 | 288 | 3.5 | 8.7 | 0.00 | 0.00 | 0.00 | 75 | 1014.4 |
| 20260503180533 | 64 | 321 | 2.6 | 8.7 | 0.00 | 0.00 | 0.00 | 77 | 1014.5 |
| 20260503180051 | 64 | 294 | 2.6 | 8.7 | 0.00 | 0.00 | 0.00 | 77 | 1014.4 |
| 20260503175532 | 64 | 317 | 3.5 | 8.7 | 0.00 | 0.00 | 0.00 | 77 | 1014.5 |
| 20260503175036 | 64 | 297 | 2.6 | 8.7 | 0.00 | 0.00 | 0.00 | 76 | 1014.4 |
| 20260503174548 | 64 | 303 | 2.6 | 7.0 | 0.00 | 0.00 | 0.00 | 77 | 1014.4 |
| 20260503174032 | 64 | 275 | 3.5 | 7.0 | 0.00 | 0.00 | 0.00 | 77 | 1014.5 |
| 20260503173532 | 64 | 288 | 2.6 | 7.0 | 0.00 | 0.00 | 0.00 | 77 | 1014.5 |
| 20260503173111 | 64 | 306 | 3.5 | 7.0 | 0.00 | 0.00 | 0.00 | 77 | 1014.4 |
| 20260503172535 | 64 | 281 | 3.5 | 7.0 | 0.00 | 0.00 | 0.00 | 77 | 1014.4 |
| 20260503172031 | 64 | 275 | 2.6 | 7.0 | 0.00 | 0.00 | 0.00 | 77 | 1014.3 |
| 20260503171550 | 64 | 302 | 1.7 | 7.0 | 0.00 | 0.00 | 0.00 | 78 | 1014.3 |
| 20260503171033 | 64 | 324 | 2.6 | 6.1 | 0.00 | 0.00 | 0.00 | 79 | 1014.2 |
| 20260503170532 | 64 | 267 | 2.6 | 5.2 | 0.00 | 0.00 | 0.00 | 80 | 1014.2 |
| 20260503150534 | 61 | 299 | 1.7 | 4.3 | 0.00 | 0.00 | 0.00 | 85 | 1013.9 |
| 20260503131031 | 59 | 303 | 1.7 | 3.5 | 0.00 | 0.00 | 0.00 | 87 | 1013.1 |
| 20260503130531 | 59 | 289 | 0.9 | 4.3 | 0.00 | 0.00 | 0.00 | 86 | 1013.0 |
| 20260503110534 | 59 | 288 | 1.7 | 5.2 | 0.00 | 0.00 | 0.00 | 85 | 1012.4 |
| 20260503081546 | 60 | 203 | 0.0 | 0.9 | 0.00 | 0.00 | 0.00 | 88 | 1013.3 |
| 20260503081031 | 60 | 0 | 0.0 | 0.9 | 0.00 | 0.00 | 0.00 | 89 | 1013.3 |
| 20260503080533 | 60 | 0 | 0.0 | 0.9 | 0.00 | 0.00 | 0.00 | 89 | 1013.4 |
| 20260503072533 | 60 | 235 | 1.7 | 3.5 | 0.00 | 0.00 | 0.00 | 89 | 1013.7 |
| 20260503072032 | 60 | 252 | 0.0 | 2.6 | 0.00 | 0.00 | 0.00 | 89 | 1013.7 |
| 20260503071549 | 60 | 0 | 0.0 | 1.7 | 0.00 | 0.00 | 0.00 | 89 | 1013.7 |
| 20260503071031 | 60 | 291 | 0.0 | 2.6 | 0.00 | 0.00 | 0.00 | 89 | 1013.7 |
| 20260503070531 | 60 | 284 | 0.0 | 2.6 | 0.00 | 0.00 | 0.00 | 89 | 1013.6 |
| 20260503070105 | 60 | 284 | 0.9 | 2.6 | 0.00 | 0.00 | 0.00 | 89 | 1013.8 |